Temp
17 18 17 17 16 17 17 16 17 17 17 17 17 18 17 13 13 12 11 11 11 12 10 10 10 10 11 11 12 12 12 13 12 12 12 13 13 15 15 13 12 14 13 13
17 17 17 17 17 17 17 16 16 16 16 17 17 17 13 11 10 11 11 11 11 11 12 11 11 11 10 10 10 10 10 11 11 11 11 11 12 13 14 15 14 12 12 13
17 17 17 17 15 16 15 14 14 15 15 15 15 17 14 11 11 11 10 10 10 10 11 11 11 11 10 10 10 10 9 9 10 10 11 11 11 11 12 12 14 13 12 12
17 16 16 15 15 15 15 14 14 15 15 16 16 16 14 12 12 11 10 10 11 10 10 10 10 11 10 10 10 10 11 10 9 9 9 9 9 10 11 10 11 12 12 13
16 15 14 14 15 14 15 14 14 15 14 13 13 14 14 12 13 13 11 10 11 11 10 10 10 10 10 9 9 10 10 10 10 10 9 9 8 9 9 10 10 11 11 13
13 15 14 14 14 14 13 13 13 10 12 13 11 12 13 13 12 11 10 11 10 10 10 10 10 10 10 9 10 10 9 10 10 9 9 8 8 8 9 9 10 10 11 11
12 13 14 13 13 13 13 12 13 14 15 15 11 12 14 11 10 10 10 11 10 10 10 10 10 10 9 9 9 9 9 9 9 9 9 7 7 7 8 8 9 9 10 11
10 13 12 12 13 12 12 12 12 11 13 13 12 11 13 10 9 9 10 10 10 10 10 9 9 9 9 8 9 9 9 8 9 7 8 7 7 7 7 7 8 8 9 10
10 11 11 12 12 12 11 11 11 10 10 9 11 11 11 10 11 11 11 11 11 11 10 10 10 9 9 9 9 8 8 9 8 8 8 7 6 6 6 6 7 7 9 10
9 9 10 11 11 10 11 10 10 9 7 7 9 10 11 11 9 11 10 10 10 10 10 10 10 9 9 9 9 9 9 8 8 7 7 6 6 6 5 6 6 7 8 9
7 8 9 10 10 10 9 9 8 8 7 7 7 9 9 10 10 9 9 10 9 9 9 9 9 9 8 9 9 9 9 8 7 7 7 6 6 6 5 5 5 7 8 9
8 6 6 8 9 7 8 8 7 6 6 6 5 7 11 9 9 10 10 9 9 9 9 8 8 8 8 8 9 9 9 8 7 7 7 5 6 6 5 5 5 6 7 9
8 6 6 8 8 8 7 8 8 6 4 6 5 7 10 10 9 9 9 8 8 7 7 7 8 8 8 8 8 8 8 8 7 7 6 6 6 5 5 5 5 6 7 7
8 6 6 7 7 6 7 7 6 6 5 6 6 7 8 8 8 9 8 8 7 7 8 8 8 8 8 8 8 8 7 6 7 6 6 5 5 5 4 4 5 6 6 7
6 4 5 6 6 6 6 6 6 5 5 5 7 6 7 8 8 8 7 6 7 8 8 8 8 8 7 7 7 7 6 5 6 6 5 5 5 5 4 4 5 5 6 7
5 5 5 4 6 6 6 7 6 6 6 6 6 6 8 8 7 7 7 7 7 7 7 7 8 7 7 7 6 6 6 5 6 5 5 5 5 4 4 4 4 5 6 7
3 4 3 3 4 5 5 6 6 7 7 7 6 8 7 7 8 8 8 7 7 7 7 7 7 6 6 6 6 5 5 6 5 5 5 5 5 4 4 4 4 5 6 6
3 2 3 4 4 3 6 6 6 5 7 6 6 6 6 7 7 7 7 6 7 7 7 7 6 6 6 5 5 5 5 5 5 5 4 5 4 4 4 4 4 5 5 7
2 3 2 4 3 5 7 5 5 4 5 6 6 6 6 7 6 7 7 7 7 6 6 5 5 5 5 5 5 4 4 4 4 5 4 4 4 4 4 4 4 4 6 7
2 1 0 -1 -1 3 4 5 6 5 5 6 6 6 6 6 5 7 7 6 6 6 5 5 6 5 5 5 5 4 4 5 4 4 4 4 4 4 4 4 4 4 6 8
-1 -3 -3 -1 -2 2 4 5 6 4 4 5 6 6 6 5 6 6 6 6 6 6 5 6 5 5 5 5 4 3 4 4 4 3 3 3 4 4 4 4 4 5 8 10
1 -3 -3 -2 -2 1 5 6 4 5 5 6 5 5 6 5 5 5 5 6 6 6 5 5 5 4 4 4 3 3 4 4 4 4 4 4 4 4 4 3 4 7 8 7
0 0 -0 -0 3 5 6 5 5 5 5 5 5 5 5 4 4 5 5 6 6 5 5 5 5 4 4 4 4 3 4 3 3 3 4 4 3 3 4 4 6 7 7 7
-0 -0 1 1 4 4 4 5 5 5 4 5 5 5 5 4 5 5 5 6 5 5 5 5 4 4 4 4 3 3 2 2 2 3 3 3 3 4 4 4 7 7 7 7
3 1 1 1 2 3 3 3 3 4 5 5 5 5 5 4 5 5 5 5 5 5 4 4 4 4 4 3 2 2 2 2 2 3 3 3 3 3 4 7 7 7 6 6
1 2 2 2 3 3 3 4 4 4 4 4 4 4 5 4 5 4 4 4 4 4 4 4 4 4 3 2 2 2 3 3 3 3 3 3 3 4 6 6 6 6 6 5
Height
819 827 837 836 835 833 835 838 836 833 825 825 821 815 814 824 823 824 825 824 822 821 821 818 816 812 809 805 801 797 793 789 786 781 777 771 768 765 763 761 759 756 754 752
828 839 835 831 835 834 835 838 840 832 827 824 814 812 824 827 832 829 828 828 826 822 819 818 815 811 808 805 801 797 793 789 785 782 780 776 770 764 761 757 754 753 750 749
835 838 832 831 838 837 840 843 842 840 829 824 819 808 819 829 830 831 829 828 826 824 821 817 815 812 809 805 801 797 793 789 785 781 776 772 768 764 759 756 751 750 747 742
837 837 836 838 838 841 842 841 840 837 835 824 823 820 818 827 828 826 826 826 825 825 822 819 817 813 809 806 802 797 792 787 784 780 774 771 767 763 759 753 749 745 741 736
841 843 844 843 842 841 840 840 838 830 834 836 834 830 815 827 822 823 825 825 823 822 822 818 816 812 809 805 800 795 791 787 784 779 774 769 764 760 755 749 743 741 735 731
847 842 845 848 845 846 844 841 837 846 842 836 846 844 823 820 824 827 829 825 825 823 820 816 813 811 807 803 799 795 790 785 782 778 773 769 764 757 752 746 740 738 731 725
858 851 850 851 850 848 849 850 845 831 824 826 845 839 815 829 832 832 829 826 825 823 819 815 811 808 805 801 798 793 789 784 780 777 772 767 762 757 751 745 740 735 729 723
876 855 859 858 857 859 859 858 862 862 843 838 842 835 820 831 834 833 830 826 823 820 815 812 809 805 802 799 796 791 787 783 779 776 770 766 760 754 748 742 736 728 720 710
881 870 864 859 859 859 860 861 865 866 862 865 843 836 826 831 829 828 825 822 820 814 811 807 804 801 799 795 792 789 785 782 777 773 767 763 758 750 746 739 734 729 723 718
887 884 871 863 859 862 861 865 868 873 883 872 852 843 828 830 833 826 827 822 817 812 807 803 800 797 794 791 788 785 782 779 775 771 765 761 755 749 741 734 728 724 718 713
886 888 873 868 862 864 868 869 876 879 880 877 870 842 840 834 830 834 827 821 816 810 805 801 798 794 791 789 785 781 778 776 772 768 762 758 752 745 742 735 728 720 714 708
889 894 892 874 868 873 872 874 877 887 883 877 881 850 834 835 835 830 825 821 814 809 803 799 795 792 788 785 780 777 774 771 768 765 760 755 748 743 738 730 723 717 711 704
890 895 894 870 872 871 873 872 874 882 894 874 881 851 832 831 828 824 823 818 814 808 802 799 795 792 788 782 778 774 769 766 764 761 757 751 744 738 731 724 718 713 707 702
887 896 896 890 885 888 881 875 876 881 882 870 861 849 835 834 829 822 819 817 814 808 803 799 795 791 786 781 776 771 766 764 760 757 754 749 742 735 731 722 716 708 703 699
893 898 893 891 888 887 881 872 864 879 870 875 849 848 837 833 827 823 821 818 812 806 802 799 795 790 785 779 774 769 765 761 757 754 750 746 741 736 729 718 711 705 700 694
899 899 894 888 882 881 876 863 863 858 856 857 851 845 832 828 828 824 817 815 810 805 802 798 793 787 784 778 772 768 763 758 755 750 744 740 735 729 723 715 707 701 694 690
904 900 904 896 886 880 874 866 859 853 848 847 847 838 836 830 825 819 814 812 808 804 801 796 791 787 782 775 770 765 760 756 751 747 741 735 730 723 719 714 706 699 692 688
905 909 901 892 887 887 860 865 860 861 848 850 847 842 838 833 825 818 812 809 805 803 798 793 789 783 778 771 767 762 757 753 748 742 737 733 727 721 717 712 707 700 693 689
902 900 906 895 898 874 856 868 868 867 854 849 847 841 834 828 822 811 808 805 804 800 796 791 786 780 773 767 762 758 753 748 743 737 732 727 722 716 713 707 703 697 693 688
906 910 919 925 926 888 869 866 853 853 851 847 848 841 836 828 826 807 806 805 800 795 791 786 780 775 769 762 757 752 746 742 736 732 727 722 717 714 709 704 698 692 690 687
920 930 934 917 923 888 869 863 857 859 857 846 845 841 836 832 826 812 806 802 797 791 786 781 776 770 763 757 751 746 740 736 731 725 722 718 715 711 706 700 694 688 684 685
915 932 928 924 924 891 865 860 872 861 852 849 844 839 832 825 817 810 804 798 792 787 781 776 771 764 756 752 746 738 731 727 723 720 717 715 711 708 704 699 691 686 684 685
913 909 911 908 883 864 861 862 859 855 852 845 841 834 829 822 814 807 801 795 789 784 778 773 766 758 750 744 738 729 722 719 716 715 713 711 708 703 700 695 692 691 689 689
902 897 897 892 866 867 861 857 855 852 847 841 837 831 825 819 810 804 798 792 787 781 775 768 761 752 743 736 728 721 714 710 709 708 707 706 703 700 696 693 693 694 695 693
892 895 888 881 869 863 855 854 851 845 840 836 829 827 822 815 807 802 796 790 784 778 771 764 756 747 736 728 719 711 705 702 700 702 703 702 700 697 694 692 693 696 698 696
892 888 883 872 864 863 851 845 842 841 834 829 828 820 815 812 806 801 794 790 783 775 768 760 751 742 731 721 711 702 696 693 694 697 699 699 698 696 692 692 697 701 702 703
Wind_Speed
5 8 5 3 1 2 3 3 6 5 4 12 5 15 9 6 10 9 8 8 8 8 8 11 13 16 18 19 20 21 21 21 23 23 21 20 15 20 20 19 18 19 18 17
6 4 4 2 4 3 3 4 5 10 6 10 12 17 4 7 4 5 6 7 7 7 9 12 14 16 18 18 20 21 21 22 20 18 20 18 19 16 20 19 24 19 15 15
3 1 3 2 2 4 2 2 4 7 6 7 8 5 3 4 3 4 6 3 4 6 8 10 13 15 17 20 22 22 21 20 21 19 22 20 19 16 13 19 24 24 18 15
4 3 3 4 3 1 2 2 5 9 12 8 7 7 4 1 2 2 4 5 7 7 6 7 12 15 16 18 18 19 20 21 19 20 19 19 14 18 18 20 20 21 19 18
2 5 5 5 0 3 4 7 6 16 12 4 5 3 2 2 1 3 3 5 5 6 8 11 13 14 17 17 18 19 19 20 22 24 22 21 19 18 20 23 23 20 18 16
1 3 3 3 3 3 7 6 8 3 1 2 5 3 4 2 2 5 3 6 8 10 10 11 13 13 15 17 17 19 20 22 24 26 24 21 22 24 24 25 25 23 21 21
7 2 3 4 5 4 9 7 5 4 2 3 4 6 8 3 3 3 7 10 10 10 11 11 12 13 13 15 16 17 20 20 22 25 27 24 22 23 23 24 24 27 20 21
5 4 5 7 3 3 3 2 1 6 6 11 12 8 1 2 4 6 8 11 11 12 11 10 12 12 11 12 14 15 17 19 21 22 27 27 25 24 24 22 26 29 28 30
7 4 4 4 3 1 2 1 1 5 6 5 4 6 4 1 5 9 14 13 16 17 13 11 14 13 13 11 14 15 16 19 22 25 27 27 27 27 26 27 25 24 23 24
3 7 2 5 1 2 3 0 3 0 4 5 2 10 11 10 13 19 17 17 19 18 16 12 15 16 14 15 17 18 18 19 21 26 26 26 29 32 31 31 27 25 25 25
2 3 3 3 2 7 5 2 2 1 2 3 6 9 3 16 17 13 19 19 17 17 16 14 17 18 15 18 19 20 20 20 21 24 27 26 28 34 30 25 24 25 26 27
2 0 4 7 6 3 1 1 3 2 5 4 5 16 12 10 11 17 21 16 18 16 14 14 16 14 13 17 21 22 21 20 20 22 26 26 27 30 28 26 24 24 25 26
3 1 6 6 2 2 4 0 1 1 2 16 10 12 8 20 24 19 16 17 15 13 12 10 11 12 14 18 20 21 23 22 19 21 25 28 30 32 31 32 26 24 24 23
4 2 6 7 10 5 13 11 8 7 7 14 15 24 25 20 18 18 17 15 12 9 8 8 10 15 19 22 23 23 24 19 18 20 23 25 30 31 29 31 26 26 24 21
3 4 4 6 13 12 17 21 21 11 18 9 20 19 21 18 18 18 13 10 10 10 11 11 12 15 21 22 24 24 22 18 16 20 23 23 29 27 26 30 28 26 24 20
3 4 9 15 11 14 17 20 17 17 17 15 20 21 17 14 10 8 9 8 9 11 11 12 13 18 18 21 24 22 22 19 21 22 25 26 28 28 26 29 30 28 27 21
2 2 1 5 5 10 7 6 6 6 6 8 7 11 10 12 14 13 9 9 11 11 11 12 13 17 19 21 23 23 21 25 25 23 25 26 28 28 27 27 29 27 27 24
2 1 3 4 4 3 3 6 5 12 5 9 11 14 13 12 14 16 11 10 11 10 12 13 17 21 23 24 26 24 23 23 25 25 25 28 27 27 26 26 25 24 24 22
3 1 3 4 6 11 6 7 13 9 5 11 19 18 18 17 14 13 7 3 8 11 15 16 19 23 24 25 25 22 23 22 22 27 26 26 26 27 26 28 26 25 20 23
4 3 2 3 3 6 3 13 23 5 7 17 18 18 19 19 11 12 7 8 13 15 16 19 23 22 22 28 26 21 20 25 25 26 26 24 24 26 27 27 27 25 20 13
3 4 2 4 4 9 2 14 12 7 8 19 20 19 19 13 10 18 20 15 14 16 20 23 23 23 26 29 28 23 27 24 27 28 24 22 24 25 24 28 27 25 23 21
1 1 2 1 2 6 2 18 8 12 17 15 19 16 18 19 18 14 13 11 15 17 22 24 22 26 29 27 26 28 26 28 25 21 24 23 23 23 23 24 27 14 25 34
2 6 3 7 6 11 18 17 14 13 18 17 14 17 17 18 15 13 9 11 15 19 21 24 23 27 28 29 29 27 31 29 26 22 21 21 20 22 22 22 15 7 16 35
3 4 4 6 11 14 17 19 17 14 13 16 15 17 15 16 15 13 11 11 15 20 22 25 25 26 29 33 33 30 31 28 24 20 18 16 18 19 19 18 9 11 14 28
7 3 5 9 15 12 14 9 13 18 17 17 20 16 14 13 13 10 12 12 18 21 24 25 26 26 34 34 35 34 30 25 20 17 13 13 15 15 17 12 14 13 14 31
3 5 4 8 15 15 20 19 19 17 18 18 15 17 20 13 12 14 10 17 18 22 26 27 29 31 36 37 36 35 31 20 16 10 8 9 11 11 11 25 27 19 26 35
Wind_Direction
19 60 46 342 9 234 251 251 276 283 317 344 288 295 317 46 66 71 64 57 47 33 2 14 15 15 12 10 5 2 355 353 354 351 350 342 338 338 336 336 331 330 327 302
26 87 343 330 33 6 325 325 333 289 300 325 294 299 108 59 69 90 82 46 34 23 16 8 5 6 5 357 355 351 349 349 343 341 336 331 326 322 331 328 332 325 322 314
90 74 348 55 71 17 101 89 273 267 307 264 304 272 160 90 100 83 50 50 19 360 353 355 355 355 355 354 349 346 342 340 341 337 331 329 332 323 321 328 330 325 318 320
84 352 29 38 86 356 291 344 288 302 329 310 20 292 133 32 19 30 20 4 351 346 332 330 341 345 351 343 345 349 346 344 344 342 338 330 322 315 312 315 314 311 320 328
329 12 35 52 234 343 290 334 283 290 280 309 14 255 294 291 227 290 333 333 322 322 336 331 329 335 338 345 346 352 355 354 352 350 352 345 333 321 315 319 322 313 317 325
55 320 44 339 329 12 306 328 309 52 98 254 114 359 270 265 310 309 310 302 320 327 320 312 310 322 336 346 351 353 355 354 350 348 343 341 335 332 325 326 327 320 314 323
344 8 3 24 357 7 23 9 338 322 340 317 184 330 265 317 323 305 325 312 312 306 299 294 297 307 324 331 339 345 345 357 3 2 356 344 333 326 319 319 317 313 313 315
2 345 18 335 38 317 3 59 272 292 307 299 308 250 245 292 309 306 293 289 295 294 292 291 286 284 303 313 326 332 337 343 351 352 355 347 342 329 317 318 317 312 320 326
349 262 323 42 327 32 351 68 158 272 272 260 252 305 247 336 338 332 331 326 318 313 293 288 302 292 302 316 324 320 318 326 337 344 351 344 338 345 322 325 321 307 306 305
3 292 328 298 340 53 111 273 292 294 291 281 280 295 291 319 321 327 325 322 318 312 302 297 319 307 299 312 317 317 315 314 328 336 345 337 338 344 336 331 321 316 313 312
82 173 267 343 291 306 338 319 51 308 236 281 305 277 322 304 305 317 314 316 312 309 303 303 313 303 296 300 305 313 309 312 321 330 337 332 335 343 332 322 317 321 316 319
311 296 287 255 295 278 220 136 103 172 273 243 274 282 285 290 309 312 307 311 312 310 306 310 309 305 306 302 306 305 305 309 312 323 330 329 332 336 329 327 322 319 319 321
359 292 309 318 15 53 82 348 203 166 200 282 285 280 284 309 307 310 312 315 319 320 326 330 331 326 317 319 319 313 306 304 310 320 328 330 331 330 333 327 325 319 323 320
292 219 203 257 286 299 299 284 253 261 273 282 269 278 291 300 302 309 313 314 316 317 318 323 332 331 328 325 322 317 314 315 312 319 327 325 328 328 324 322 325 319 323 320
85 256 270 283 284 284 278 278 283 254 255 255 276 288 285 291 301 305 299 300 314 327 329 330 327 328 328 326 327 328 323 318 321 323 322 323 325 322 325 325 327 321 322 325
10 285 318 298 271 263 269 275 276 277 269 255 259 275 285 284 292 287 298 302 310 312 316 319 320 324 322 321 321 325 328 326 327 322 319 320 324 323 327 327 325 321 323 331
253 276 338 280 287 313 283 316 289 283 268 284 293 321 325 322 326 318 305 300 293 300 307 316 316 313 311 313 315 316 319 320 320 316 313 315 321 322 323 327 322 320 325 332
210 155 232 270 320 256 185 28 353 336 318 32 353 340 325 314 320 301 291 278 291 302 309 310 310 311 310 309 313 317 321 315 312 311 311 314 317 318 318 323 320 319 319 324
184 240 317 313 317 289 318 14 340 338 301 11 356 334 331 331 320 299 279 270 284 289 290 292 301 306 306 306 312 314 315 311 309 308 310 312 316 318 318 319 319 313 312 324
67 61 124 331 242 276 78 348 342 304 240 359 345 329 326 333 324 302 300 308 303 300 296 302 308 307 305 307 308 302 301 306 303 306 306 307 311 314 314 316 313 308 313 303
338 323 240 268 256 278 212 354 338 342 336 329 328 316 314 316 290 285 299 297 298 301 303 312 310 304 303 308 305 296 301 298 300 299 300 305 307 308 310 312 311 310 318 127
255 230 266 203 265 278 271 329 349 292 303 301 304 304 309 310 306 295 292 295 306 307 313 316 310 308 305 304 296 293 293 297 297 292 296 300 304 306 307 311 317 345 135 114
276 196 229 194 247 271 298 296 294 290 297 297 300 304 309 307 301 298 293 303 306 307 310 315 309 305 305 306 306 293 298 300 297 293 291 297 301 302 307 317 321 118 140 124
278 202 235 298 269 280 291 296 291 294 285 298 301 299 304 298 298 298 300 306 311 316 318 315 313 309 307 314 309 300 297 293 289 286 283 290 292 300 309 324 140 139 129 128
282 173 242 254 283 293 283 278 286 296 292 295 299 299 298 299 298 299 310 312 315 319 316 319 313 310 316 316 312 308 299 288 276 271 277 278 285 299 308 109 116 117 141 133
189 234 289 285 298 293 287 295 294 293 289 290 298 301 306 299 300 307 310 316 318 317 320 320 319 315 317 317 314 310 305 288 257 248 245 261 277 303 108 97 88 105 123 120